sat.trackr.live / text

‹ back to catalog

GPS BIIRM-3 (PRN 12)

NORAD 29601 · 2006-052A

PAYLOAD ACTIVE UNKNOWN

§ Identity

Operator
Country
US
Launch date
2006-11-17
Launch site
AFETR
Launch vehicle
Mass (kg)
RCS (m²)
4.81

Purposes: earth_obs, nav

External: N2YO · Heavens-Above · Gunter

§ Orbital elements

Epoch: 2026-09-19T03:39:26.293824Z

Period
717.98 min
Inclination
54.9225°
Eccentricity
0.0085633
Mean motion
2.00563302 rev/d
Perigee alt
19,954.8 km
Apogee alt
20,409.7 km
Semi-major
26,560.4 km
B*
0.0000e+0
RAAN
210.2844°
Arg perigee
91.1420°
Mean anomaly
269.8263°
Rev number
14,529

§ Raw data

GPS BIIRM-3 (PRN 12)1 29601U 06052A   26262.15238766  .00000007  00000+0  00000+0 0  99922 29601  54.9225 210.2844 0085633  91.1420 269.8263  2.00563302145298

JSON: /api/v1/satellites/29601 · /tle

For live sub-satellite position, see the globe view (requires WebGL).

§ Visibility from observer

Set your observer location to see the next 7 days of passes ≥ 10°. The values pass through the URL so the page stays shareable.

No JS? Fill the form by hand. The geolocation button needs JavaScript.